EW9824 Weather Reports


time (UTC)temp
F
wind
direction
speed
knots
gust
knots
rain 1hr
in
rain 24hr
in
rain mn
in
humidity
%
barometer
mb
20260831220030 81 255 2.6 7.8 0.00 0.00 0.00 35 1013.1
20260831213104 81 264 4.3 11.3 0.00 0.00 0.00 36 1013.4
20260831211533 80 263 4.3 9.6 0.00 0.00 0.00 37 1013.5
20260831210030 78 307 3.5 11.3 0.00 0.00 0.00 39 1013.6
20260831204529 77 305 6.1 13.9 0.00 0.00 0.00 39 1013.7
20260831203031 77 294 7.0 13.0 0.00 0.00 0.00 40 1013.9
20260831201532 76 325 4.3 11.3 0.00 0.00 0.00 41 1014.3
20260831200030 76 314 5.2 9.6 0.00 0.00 0.00 41 1014.5
20260831194528 76 296 3.5 9.6 0.00 0.00 0.00 41 1014.7
20260831193031 75 301 4.3 11.3 0.00 0.00 0.00 42 1014.9
20260831191530 74 303 2.6 7.8 0.00 0.00 0.00 45 1015.2
20260831190034 71 304 3.5 8.7 0.00 0.00 0.00 51 1015.8
20260831183031 70 292 2.6 6.1 0.00 0.00 0.00 55 1016.1
20260831181529 68 279 1.7 5.2 0.00 0.00 0.00 59 1016.5
20260831174527 64 236 0.9 4.3 0.00 0.00 0.00 64 1016.8
20260831171602 62 264 0.9 4.3 0.00 0.00 0.00 66 1017.1
20260831170031 61 276 0.0 3.5 0.00 0.00 0.00 68 1017.3
20260831164530 60 117 0.0 2.6 0.00 0.00 0.00 71 1017.5
20260831163030 58 296 0.0 1.7 0.00 0.00 0.00 76 1017.6
20260831161531 57 315 0.0 0.9 0.00 0.00 0.00 81 1017.8
20260831160028 54 83 0.0 1.7 0.00 0.00 0.00 88 1017.9
20260831153028 50 157 0.0 1.7 0.00 0.00 0.00 94 1017.8
20260831151531 48 157 0.0 1.7 0.00 0.00 0.00 95 1017.8
20260831150042 45 157 0.0 1.7 0.00 0.00 0.00 94 1017.7
20260831144530 43 162 0.9 3.5 0.00 0.00 0.00 94 1017.3
20260831141531 43 154 1.7 3.5 0.00 0.00 0.00 94 1017.3
20260831140109 43 178 1.7 2.6 0.00 0.00 0.00 94 1017.2
20260831134532 42 160 1.7 3.5 0.00 0.00 0.00 93 1017.1
20260831133032 42 154 1.7 2.6 0.00 0.00 0.00 93 1017.2
20260831131527 43 168 0.9 3.5 0.00 0.00 0.00 93 1017.3
20260831130030 43 172 1.7 4.3 0.00 0.00 0.00 92 1017.3
20260831124531 44 171 1.7 4.3 0.00 0.00 0.00 92 1017.3
20260831123105 44 157 1.7 3.5 0.00 0.00 0.00 92 1017.2
20260831120028 44 164 1.7 3.5 0.00 0.00 0.00 91 1017.3
20260831114530 44 161 1.7 3.5 0.00 0.00 0.00 91 1017.3
20260831111530 45 168 1.7 3.5 0.00 0.00 0.00 91 1017.3
20260831110107 44 156 2.6 4.3 0.00 0.00 0.00 91 1017.4
20260831104531 44 160 1.7 3.5 0.00 0.00 0.00 90 1017.4
20260831103032 44 135 0.9 3.5 0.00 0.00 0.00 90 1017.4
20260831101528 45 169 1.7 3.5 0.00 0.00 0.00 89 1017.4
20260831100029 45 142 1.7 3.5 0.00 0.00 0.00 88 1017.6
20260831093029 46 181 1.7 3.5 0.00 0.00 0.00 87 1018.0
20260831091605 47 137 1.7 3.5 0.00 0.00 0.00 87 1018.0
20260831090109 46 153 1.7 4.3 0.00 0.00 0.00 88 1018.1
20260831083031 46 175 0.9 2.6 0.00 0.00 0.00 85 1018.3
20260831081529 47 180 0.0 3.5 0.00 0.00 0.00 85 1018.5
20260831080030 46 169 2.6 4.3 0.00 0.00 0.00 84 1018.6
20260831074532 47 158 0.0 2.6 0.00 0.00 0.00 82 1018.6
20260831073032 49 157 0.0 2.6 0.00 0.00 0.00 80 1018.6
20260831070026 51 150 2.6 4.3 0.00 0.00 0.00 76 1018.8
20260831064532 52 148 3.5 6.1 0.00 0.00 0.00 76 1018.8
20260831063030 51 144 3.5 6.1 0.00 0.00 0.00 77 1018.9
20260831061532 50 145 3.5 5.2 0.00 0.00 0.00 79 1018.9
20260831060032 50 160 2.6 5.2 0.00 0.00 0.00 80 1019.0
20260831054531 51 180 0.9 2.6 0.00 0.00 0.00 76 1019.1
20260831053031 53 171 0.9 2.6 0.00 0.00 0.00 73 1019.3
20260831051533 55 177 1.7 4.3 0.00 0.00 0.00 72 1019.4
20260831050031 54 165 2.6 6.1 0.00 0.00 0.00 72 1019.4
20260831044529 54 168 2.6 5.2 0.00 0.00 0.00 74 1019.5
20260831043031 53 169 1.7 4.3 0.00 0.00 0.00 76 1019.5
20260831041532 54 197 1.7 2.6 0.00 0.00 0.00 74 1019.5
20260831040028 55 208 1.7 2.6 0.00 0.00 0.00 71 1019.5
20260831034528 57 189 1.7 2.6 0.00 0.00 0.00 67 1019.4
20260831033030 59 134 0.9 2.6 0.00 0.00 0.00 62 1019.4
20260831031531 61 65 0.9 5.2 0.00 0.00 0.00 59 1019.3
20260831030029 61 348 0.9 6.1 0.00 0.00 0.00 58 1019.3
20260831023105 65 284 2.6 7.0 0.00 0.00 0.00 51 1019.2
20260831021604 66 271 3.5 8.7 0.00 0.00 0.00 50 1019.2
20260831004530 71 267 3.5 9.6 0.00 0.00 0.00 44 1019.3
20260831001604 71 323 2.6 7.8 0.00 0.00 0.00 44 1019.2
20260831000032 71 27 4.3 9.6 0.00 0.00 0.00 44 1019.2
20260830234603 71 350 4.3 11.3 0.00 0.00 0.00 46 1019.3
20260830233030 71 1 5.2 10.4 0.00 0.00 0.00 45 1019.4
20260830231605 72 353 5.2 9.6 0.00 0.00 0.00 43 1019.5
20260830230029 73 311 5.2 9.6 0.00 0.00 0.00 40 1019.6
20260830224607 73 300 4.3 9.6 0.00 0.00 0.00 41 1019.7
20260830223103 73 296 3.5 10.4 0.00 0.00 0.00 40 1020.0
20260830221530 72 308 4.3 8.7 0.00 0.00 0.00 42 1020.3